Hawarden, United Kingdom

11:11 AM GMT on February 24, 2017 (GMT +0000)
Hawarden

Weather History for EGNR - October, 2012

Change the Weather History Date:

Saturday, October 27, 2012

  Actual Average (EGGP) Record (EGGP)
Temperature  
Mean Temperature 40 °F -  
Max Temperature 46 °F 49 °F 64 °F (2005)
Min Temperature 33 °F 40 °F 32 °F (2012)
Degree Days  
Heating Degree Days 26    
Moisture  
Dew Point 34 °F    
Average Humidity 67    
Maximum Humidity 81    
Minimum Humidity 49    
Precipitation  
Precipitation 0.00 in - - ()
Sea Level Pressure  
Sea Level Pressure 30.19 in    
Wind  
Wind Speed 11 mph ()    
Max Wind Speed 18 mph    
Max Gust Speed -    
Visibility 8.2 miles    
Events      
Averages and records for this station are not official NWS values.
T = Trace of Precipitation, MM = Missing Value Source: Averaged Metar Reports

Daily Weather History Graph

Daily Weather History Graph

Search for Another Location

Airport or City:

Trip Planner

Search our weather history database for the weather conditions in past years. The results will help you decide how hot, cold, wet, or windy it might be!

Date:

Astronomy

Oct. 27, 2012 Rise Set
Actual Time 8:01 AM BST 5:49 PM BST
Civil Twilight 7:25 AM BST 6:25 PM BST
Nautical Twilight 6:44 AM BST 7:06 PM BST
Astronomical Twilight 6:04 AM BST 7:46 PM BST
Moon 4:38 PM BST (10/27) 5:28 AM BST (10/27)
Length of Visible Light 11h 00m
Length of Day
9h 48m
Waxing Gibbous, 95% of the Moon is Illuminated
Oct 27
Waxing Gibbous
Oct 29
Full
Nov 7
Last Quarter
Nov 13
New
Nov 20
First Quarter

Hourly Weather History & Observations

Time (BST) Temp. Windchill Dew Point Humidity Pressure Visibility Wind Dir Wind Speed Gust Speed Precip Events Conditions
12:50 AM 36 °F - 26 °F 55% 30.09 in 28 mi NNW 10.4 mph - -  
3:50 AM 34 °F - 26 °F 64% 30.11 in 25 mi NW 5.8 mph - -  
6:50 AM 36 °F - 29 °F 69% 30.14 in 28 mi NW 9.2 mph - -  
8:20 AM 37.4 °F 30.3 °F 32.0 °F 81% 30.18 in 6.2 mi North 10.4 mph - N/A   Partly Cloudy
8:50 AM 39.2 °F 32.0 °F 33.8 °F 81% 30.18 in 6.2 mi NNW 11.5 mph - N/A   Partly Cloudy
9:20 AM 41.0 °F 35.2 °F 33.8 °F 76% 30.18 in 6.2 mi NNW 9.2 mph - N/A   Partly Cloudy
9:50 AM 43 °F - 33 °F 57% 30.19 in 19 mi NW 11.5 mph - -  
9:50 AM 42.8 °F 35.4 °F 35.6 °F 76% 30.18 in 6.2 mi NNW 15.0 mph - N/A   Partly Cloudy
10:20 AM 44.6 °F 38.1 °F 35.6 °F 71% 30.18 in 6.2 mi NNW 13.8 mph - N/A   Partly Cloudy
10:50 AM 44.6 °F 37.2 °F 35.6 °F 71% 30.18 in 6.2 mi North 17.3 mph - N/A   Partly Cloudy
11:20 AM 44.6 °F 37.4 °F 33.8 °F 66% 30.21 in 6.2 mi North 16.1 mph - N/A   Partly Cloudy
11:50 AM 46.4 °F 39.5 °F 35.6 °F 66% 30.21 in 6.2 mi North 17.3 mph - N/A   Partly Cloudy
12:20 PM 44.6 °F 37.8 °F 33.8 °F 66% 30.21 in 6.2 mi North 15.0 mph - N/A   Partly Cloudy
12:50 PM 46.4 °F 39.8 °F 35.6 °F 66% 30.21 in 6.2 mi North 16.1 mph - N/A   Partly Cloudy
1:20 PM 46.4 °F 39.2 °F 35.6 °F 66% 30.21 in 6.2 mi North 18.4 mph - N/A   Partly Cloudy
1:50 PM 46.4 °F 40.4 °F 35.6 °F 66% 30.21 in 6.2 mi North 13.8 mph - N/A   Partly Cloudy
2:20 PM 48.2 °F - 35.6 °F 62% 30.21 in 6.2 mi NNW 16.1 mph - N/A   Partly Cloudy
2:50 PM 46.4 °F 40.7 °F 35.6 °F 66% 30.21 in 6.2 mi North 12.7 mph - N/A   Partly Cloudy
3:20 PM 46.4 °F 39.8 °F 35.6 °F 66% 30.21 in 6.2 mi NNW 16.1 mph - N/A   Partly Cloudy
3:50 PM 46 °F - 33 °F 49% 30.21 in 19 mi NW 12.7 mph - -  
3:50 PM 46.4 °F 41.5 °F 35.6 °F 66% 30.21 in 6.2 mi NNW 10.4 mph - N/A   Partly Cloudy
6:50 PM 42 °F - 34 °F 64% 30.24 in 18 mi WNW 4.6 mph - -   Partly Cloudy
9:50 PM 41 °F - 32 °F 61% 30.19 in 25 mi WSW 8.1 mph - -